This demonstration page uses our WeatherBlox Daily Observations layout. Learn more.

Left ArrowRight Arrow

Hourly Observations for December 8, 2021

Temp ( °F °C ) Dew Point ( °F °C ) Humidity (%) Winds ( mph kmh ) Pressure ( in mb ) Visibility ( mi km ) Precip ( " mm )
12:56 am 00:56 Cloudy 34 1.1 17 -8.3 50 50 WSW 5 7 29.94 1014 10 16 0.00 0.00
1:56 am 01:56 Mostly Cloudy 32 0 16 -8.9 52 52 SW 8 13 29.92 1013 10 16 0.00 0.00
2:56 am 02:56 Clear 32 0 18 -7.8 56 56 SW 8 13 29.92 1013 10 16 0.00 0.00
3:56 am 03:56 Clear 32 0 17 -8.3 54 54 WSW 9 15 29.92 1013 10 16 0.00 0.00
4:56 am 04:56 Clear 28 -2.2 16 -8.9 60 60 W 5 7 29.93 1014 10 16 0.00 0.00
5:56 am 05:56 Clear 30 -1.1 17 -8.3 58 58 W 5 7 29.93 1013 10 16 0.00 0.00
6:56 am 06:56 Clear 24 -4.4 15 -9.4 68 68 SW 5 7 29.96 1015 10 16 0.00 0.00
7:56 am 07:56 Sunny 25 -3.9 17 -8.3 72 72 WSW 3 6 29.96 1015 10 16 0.00 0.00
8:56 am 08:56 Hazy 29 -1.7 19 -7.2 66 66 SW 8 13 29.96 1014 6 10 0.00 0.00
9:56 am 09:56 Sunny 35 1.7 19 -7.2 52 52 SW 3 6 29.96 1015 10 16 0.00 0.00
10:56 am 10:56 Sunny 42 5.6 22 -5.6 45 45 SE 6 9 29.93 1013 10 16 0.00 0.00
11:56 am 11:56 Sunny 48 8.9 24 -4.4 39 39 ESE 8 13 29.85 1011 10 16 0.00 0.00
12:56 pm 12:56 Sunny 53 11.7 26 -3.3 35 35 SSE 12 19 29.81 1010 10 16 0.00 0.00
1:56 pm 13:56 Sunny 55 12.8 25 -3.9 31 31 S 17 28 29.75 1008 10 16 0.00 0.00
2:56 pm 14:56 Sunny 54 12.2 24 -4.4 31 31 SSE 16 26 29.70 1006 10 16 0.00 0.00
3:56 pm 15:56 Sunny 53 11.7 24 -4.4 32 32 SSE 18 30 29.66 1004 10 16 0.00 0.00
4:56 pm 16:56 Sunny 48 8.9 23 -5 37 37 SSE 14 22 29.65 1004 10 16 0.00 0.00
5:56 pm 17:56 Clear 45 7.2 24 -4.4 44 44 SSE 9 15 29.64 1004 10 16 0.00 0.00
6:56 pm 18:56 Clear 46 7.8 24 -4.4 42 42 SSE 15 24 29.62 1003 10 16 0.00 0.00
7:56 pm 19:56 Clear 46 7.8 24 -4.4 42 42 SSE 14 22 29.59 1002 10 16 0.00 0.00
8:56 pm 20:56 Clear 47 8.3 23 -5 39 39 S 18 30 29.58 1002 10 16 0.00 0.00
9:56 pm 21:56 Clear 46 7.8 24 -4.4 42 42 S 16 26 29.55 1001 10 16 0.00 0.00
10:56 pm 22:56 Clear 45 7.2 25 -3.9 46 46 S 13 20 29.52 1000 10 16 0.00 0.00
11:56 pm 23:56 Mostly Clear 42 5.6 25 -3.9 51 51 S 15 24 29.47 998 10 16 0.00 0.00

Powered by AerisWeather